When you browse on this site, cookies collect data to enhance your experience and personalize the content and advertising you see.
Visit our Privacy Policy to learn more. By continuing to use the site, you agree to this use of cookies and data.

Hourly Weather Krasnogore

Today, 3 August, Monday

Time Temperature Precipitation Wind Pressure Humidity
00:00 +12°C° 0 mm 2 mps 741 mmHg 91%
01:00 +10°C° 0 mm 2 mps 741 mmHg 91%
02:00 +11°C° 0 mm 1 mps 742 mmHg 91%
03:00 +11°C° 0 mm 1 mps 742 mmHg 91%
04:00 +11°C° 0 mm 1 mps 742 mmHg 91%
05:00 +11°C° 0 mm 1 mps 743 mmHg 91%
06:00 +13°C° 0 mm 1 mps 743 mmHg 86%
07:00 +15°C° 0 mm 1 mps 743 mmHg 80%
08:00 +18°C° 0 mm 1 mps 743 mmHg 75%
09:00 +19°C° 0 mm 1 mps 744 mmHg 69%
10:00 +20°C° 0 mm 1 mps 744 mmHg 63%
11:00 +21°C° 0 mm 1 mps 744 mmHg 57%
12:00 +21°C° 0 mm 1 mps 744 mmHg 55%
13:00 +21°C° 0 mm 2 mps 744 mmHg 54%
14:00 +21°C° 0 mm 2 mps 744 mmHg 52%
15:00 +21°C° 0 mm 2 mps 744 mmHg 56%
16:00 +21°C° 0 mm 2 mps 744 mmHg 60%
17:00 +21°C° 0 mm 2 mps 744 mmHg 64%
18:00 +19°C° 0 mm 2 mps 744 mmHg 67%
19:00 +18°C° 0 mm 1 mps 744 mmHg 71%
20:00 +16°C° 0 mm 1 mps 744 mmHg 75%
21:00 +15°C° 0 mm 1 mps 744 mmHg 76%
22:00 +15°C° 0 mm 1 mps 744 mmHg 77%
23:00 +15°C° 0 mm 2 mps 745 mmHg 78%

Tomorrow, 4 August, Tuesday

Time Temperature Precipitation Wind Pressure Humidity
00:00 +14°C° 0 mm 2 mps 745 mmHg 80%
01:00 +14°C° 0 mm 1 mps 745 mmHg 83%
02:00 +13°C° 0 mm 1 mps 745 mmHg 85%
03:00 +13°C° 0 mm 1 mps 745 mmHg 85%
04:00 +13°C° 0 mm 1 mps 745 mmHg 85%
05:00 +14°C° 0 mm 1 mps 745 mmHg 86%
06:00 +15°C° 0 mm 1 mps 745 mmHg 80%
07:00 +18°C° 0 mm 1 mps 746 mmHg 75%
08:00 +19°C° 0 mm 2 mps 746 mmHg 69%
09:00 +20°C° 0 mm 2 mps 746 mmHg 65%
10:00 +21°C° 0 mm 2 mps 746 mmHg 62%
11:00 +23°C° 0 mm 2 mps 746 mmHg 58%
12:00 +23°C° 0 mm 2 mps 746 mmHg 57%
13:00 +24°C° 0 mm 2 mps 746 mmHg 56%
14:00 +24°C° 0 mm 2 mps 746 mmHg 54%
15:00 +24°C° 0 mm 1 mps 746 mmHg 58%
16:00 +24°C° 0 mm 1 mps 746 mmHg 61%
17:00 +24°C° 0 mm 1 mps 745 mmHg 64%
18:00 +22°C° 0 mm 1 mps 746 mmHg 67%
19:00 +20°C° 0 mm 1 mps 746 mmHg 71%
20:00 +19°C° 0 mm 1 mps 746 mmHg 74%
21:00 +18°C° 0 mm 1 mps 746 mmHg 75%
22:00 +17°C° 0 mm 2 mps 746 mmHg 77%
23:00 +16°C° 0 mm 2 mps 746 mmHg 78%

Day after tomorrow, 5 August, Wednesday

Time Temperature Precipitation Wind Pressure Humidity
00:00 +16°C° 0 mm 2 mps 746 mmHg 79%
01:00 +15°C° 0 mm 2 mps 746 mmHg 79%
02:00 +15°C° 0 mm 2 mps 747 mmHg 80%
03:00 +15°C° 0 mm 1 mps 747 mmHg 81%
04:00 +15°C° 0 mm 1 mps 747 mmHg 82%
05:00 +15°C° 0 mm 1 mps 747 mmHg 82%
06:00 +18°C° 0 mm 1 mps 747 mmHg 77%
07:00 +20°C° 0 mm 1 mps 747 mmHg 71%
08:00 +22°C° 0 mm 1 mps 747 mmHg 66%
09:00 +23°C° 0 mm 1 mps 747 mmHg 62%
10:00 +24°C° 0 mm 1 mps 747 mmHg 58%
11:00 +25°C° 0 mm 2 mps 747 mmHg 54%
12:00 +25°C° 0 mm 1 mps 747 mmHg 53%
13:00 +26°C° 0 mm 1 mps 747 mmHg 51%
14:00 +25°C° 0 mm 0 mps 747 mmHg 50%
15:00 +24°C° 0 mm 0 mps 747 mmHg 52%
16:00 +24°C° 0 mm 0 mps 747 mmHg 54%
17:00 +24°C° 0 mm 0 mps 747 mmHg 56%
18:00 +24°C° 0 mm 1 mps 747 mmHg 61%
19:00 +22°C° 0 mm 1 mps 747 mmHg 66%
20:00 +20°C° 0 mm 1 mps 747 mmHg 70%
21:00 +19°C° 0 mm 1 mps 747 mmHg 73%
22:00 +19°C° 0 mm 1 mps 747 mmHg 75%
23:00 +18°C° 0 mm 1 mps 747 mmHg 77%

6 August, Thursday

Time Temperature Precipitation Wind Pressure Humidity
00:00 +18°C° 0 mm 1 mps 747 mmHg 78%
01:00 +16°C° 0 mm 0 mps 748 mmHg 80%
02:00 +15°C° 0 mm 0 mps 748 mmHg 81%
03:00 +15°C° 0 mm 0 mps 748 mmHg 81%
04:00 +18°C° 0 mm 1 mps 748 mmHg 82%
05:00 +18°C° 0 mm 1 mps 748 mmHg 82%
06:00 +19°C° 0 mm 1 mps 748 mmHg 77%
07:00 +21°C° 0 mm 1 mps 748 mmHg 73%
08:00 +23°C° 0 mm 2 mps 748 mmHg 69%
09:00 +24°C° 0 mm 2 mps 748 mmHg 65%
10:00 +25°C° 0 mm 2 mps 748 mmHg 60%
11:00 +26°C° 0 mm 2 mps 748 mmHg 56%
12:00 +27°C° 0 mm 2 mps 748 mmHg 54%
13:00 +27°C° 0 mm 2 mps 748 mmHg 53%
14:00 +27°C° 0 mm 2 mps 747 mmHg 51%
15:00 +27°C° 0 mm 2 mps 747 mmHg 55%
16:00 +27°C° 0 mm 2 mps 747 mmHg 60%
17:00 +27°C° 0 mm 2 mps 747 mmHg 64%
18:00 +25°C° 0 mm 1 mps 747 mmHg 68%
19:00 +23°C° 0 mm 1 mps 747 mmHg 71%
20:00 +21°C° 0 mm 1 mps 747 mmHg 75%
21:00 +21°C° 0 mm 1 mps 747 mmHg 78%
22:00 +20°C° 0 mm 1 mps 747 mmHg 81%
23:00 +20°C° 0 mm 1 mps 747 mmHg 84%

7 August, Friday

Time Temperature Precipitation Wind Pressure Humidity
00:00 +19°C° 0 mm 1 mps 747 mmHg 87%
01:00 +18°C° 0 mm 2 mps 747 mmHg 89%
02:00 +18°C° 0 mm 2 mps 747 mmHg 92%
03:00 +18°C° 0.1 mm 2 mps 747 mmHg 93%
04:00 +18°C° 0.1 mm 2 mps 748 mmHg 94%
05:00 +18°C° 0.1 mm 2 mps 748 mmHg 95%
06:00 +19°C° 0 mm 3 mps 748 mmHg 92%
07:00 +20°C° 0 mm 3 mps 748 mmHg 89%
08:00 +21°C° 0 mm 4 mps 748 mmHg 86%
09:00 +22°C° 0.1 mm 4 mps 748 mmHg 80%
10:00 +23°C° 0.1 mm 5 mps 748 mmHg 75%
11:00 +24°C° 0.1 mm 6 mps 748 mmHg 69%
12:00 +24°C° 0 mm 6 mps 748 mmHg 66%
13:00 +24°C° 0 mm 6 mps 747 mmHg 62%
14:00 +24°C° 0 mm 6 mps 747 mmHg 58%
15:00 +25°C° 0 mm 5 mps 747 mmHg 61%
16:00 +23°C° 0 mm 4 mps 747 mmHg 64%
17:00 +23°C° 0 mm 4 mps 747 mmHg 67%
18:00 +21°C° 0 mm 4 mps 747 mmHg 71%
19:00 +20°C° 0 mm 3 mps 747 mmHg 75%
20:00 +18°C° 0 mm 3 mps 747 mmHg 79%
21:00 +18°C° 0 mm 3 mps 747 mmHg 79%
22:00 +17°C° 0 mm 4 mps 747 mmHg 80%
23:00 +17°C° 0 mm 4 mps 747 mmHg 81%

8 August, Saturday

Time Temperature Precipitation Wind Pressure Humidity
00:00 +15°C° 0 mm 4 mps 747 mmHg 83%
01:00 +16°C° 0 mm 3 mps 747 mmHg 84%
02:00 +14°C° 0 mm 3 mps 747 mmHg 86%
03:00 +14°C° 0 mm 3 mps 747 mmHg 87%
04:00 +14°C° 0 mm 3 mps 747 mmHg 87%
05:00 +14°C° 0 mm 4 mps 747 mmHg 88%
06:00 +15°C° 0 mm 4 mps 747 mmHg 83%
07:00 +18°C° 0 mm 4 mps 747 mmHg 78%
08:00 +20°C° 0 mm 5 mps 747 mmHg 73%
09:00 +21°C° 0 mm 5 mps 747 mmHg 68%
10:00 +22°C° 0 mm 5 mps 747 mmHg 63%
11:00 +23°C° 0 mm 6 mps 747 mmHg 58%
12:00 +23°C° 0 mm 6 mps 747 mmHg 57%
13:00 +23°C° 0 mm 5 mps 746 mmHg 56%
14:00 +25°C° 0 mm 5 mps 746 mmHg 56%
15:00 +23°C° 0 mm 5 mps 746 mmHg 59%
16:00 +23°C° 0 mm 4 mps 746 mmHg 63%
17:00 +23°C° 0 mm 4 mps 746 mmHg 66%
18:00 +21°C° 0 mm 3 mps 746 mmHg 70%
19:00 +19°C° 0 mm 3 mps 746 mmHg 74%
20:00 +18°C° 0 mm 3 mps 745 mmHg 77%
21:00 +17°C° 0 mm 3 mps 745 mmHg 80%
22:00 +16°C° 0 mm 3 mps 746 mmHg 82%
23:00 +16°C° 0 mm 3 mps 746 mmHg 84%
Show more